Change the Weather History Date:

Tuesday, October 11, 2011

  Actual Average Record
Temperature  
Mean Temperature 58 °F -  
Max Temperature 62 °F 69 °F 86 °F (2001)
Min Temperature 55 °F 54 °F 50 °F (2003)
Degree Days  
Heating Degree Days 6    
Growing Degree Days 8 (Base 50)    
Moisture  
Dew Point 44 °F    
Average Humidity 58    
Maximum Humidity 67    
Minimum Humidity 48    
Precipitation  
Precipitation 0.00 in - - ()
Sea Level Pressure  
Sea Level Pressure 29.82 in    
Wind  
Wind Speed 13 mph ()    
Max Wind Speed 21 mph    
Max Gust Speed 33 mph    
Visibility 6.2 miles    
Events      
Averages and records for this station are not official NWS values.
T = Trace of Precipitation, MM = Missing Value Source: Averaged Metar Reports

Daily Weather History Graph

Daily Weather History Graph

Search for Another Location

Airport or City:

Trip Planner

Search our weather history database for the weather conditions in past years. The results will help you decide how hot, cold, wet, or windy it might be!

Date:

Astronomy

Oct. 11, 2011 Rise Set
Actual Time 7:30 AM EEST 6:54 PM EEST
Civil Twilight 7:03 AM EEST 7:20 PM EEST
Nautical Twilight 6:33 AM EEST 7:51 PM EEST
Astronomical Twilight 6:02 AM EEST 8:21 PM EEST
Moon 6:18 PM EEST (10/11) 6:50 AM EEST (10/11)
Length of Visible Light 12h 17m
Length of Day
11h 24m
Full, 100% of the Moon is Illuminated
Oct 11
Full
Oct 12
Full
Oct 20
Last Quarter
Oct 26
New
Nov 2
First Quarter

Hourly Weather History & Observations

Time (EEST) Temp. Dew Point Humidity Pressure Visibility Wind Dir Wind Speed Gust Speed Precip Events Conditions
12:20 AM 57.2 °F 42.8 °F 59% 29.71 in 6.2 mi NW 15.0 mph 27.6 mph N/A   Mostly Cloudy
12:50 AM 57.2 °F 42.8 °F 59% 29.74 in 6.2 mi NW 13.8 mph 26.5 mph N/A   Mostly Cloudy
1:20 AM 57.2 °F 42.8 °F 59% 29.74 in 6.2 mi NW 12.7 mph 29.9 mph N/A   Mostly Cloudy
1:50 AM 57.2 °F 42.8 °F 59% 29.74 in 6.2 mi NW 12.7 mph 26.5 mph N/A   Mostly Cloudy
2:20 AM 57.2 °F 44.6 °F 63% 29.74 in 6.2 mi NW 11.5 mph 27.6 mph N/A   Mostly Cloudy
2:50 AM 57.2 °F 42.8 °F 59% 29.74 in 6.2 mi NW 15.0 mph 29.9 mph N/A   Mostly Cloudy
3:20 AM 57.2 °F 42.8 °F 59% 29.74 in 6.2 mi NW 16.1 mph 29.9 mph N/A   Mostly Cloudy
3:50 AM 57.2 °F 42.8 °F 59% 29.74 in 6.2 mi NW 18.4 mph 31.1 mph N/A   Mostly Cloudy
4:20 AM 57.2 °F 44.6 °F 63% 29.74 in 6.2 mi NW 16.1 mph 31.1 mph N/A   Mostly Cloudy
4:50 AM 55.4 °F 42.8 °F 63% 29.74 in 6.2 mi NW 16.1 mph 29.9 mph N/A   Mostly Cloudy
5:20 AM 55.4 °F 42.8 °F 63% 29.77 in 6.2 mi NW 17.3 mph 31.1 mph N/A   Mostly Cloudy
5:50 AM 55.4 °F 42.8 °F 63% 29.77 in 6.2 mi NW 16.1 mph 27.6 mph N/A   Mostly Cloudy
6:20 AM 55.4 °F 42.8 °F 63% 29.77 in 6.2 mi NNW 15.0 mph 26.5 mph N/A   Mostly Cloudy
6:50 AM 55.4 °F 42.8 °F 63% 29.77 in 6.2 mi NNW 16.1 mph 27.6 mph N/A   Mostly Cloudy
7:20 AM 57.2 °F 42.8 °F 59% 29.77 in 6.2 mi NNW 18.4 mph 29.9 mph N/A   Mostly Cloudy
7:50 AM 57.2 °F 42.8 °F 59% 29.77 in 6.2 mi NW 16.1 mph - N/A   Scattered Clouds
8:20 AM 57.2 °F 42.8 °F 59% 29.77 in 6.2 mi NW 17.3 mph - N/A   Scattered Clouds
8:50 AM 57.2 °F 42.8 °F 59% 29.80 in 6.2 mi NNW 16.1 mph 32.2 mph N/A   Mostly Cloudy
9:20 AM 59.0 °F 42.8 °F 55% 29.80 in 6.2 mi NW 17.3 mph 33.4 mph N/A   Mostly Cloudy
9:50 AM 59.0 °F 42.8 °F 55% 29.83 in 6.2 mi NNW 15.0 mph 31.1 mph N/A   Scattered Clouds
10:20 AM 59.0 °F 42.8 °F 55% 29.83 in 6.2 mi NNW 18.4 mph 33.4 mph N/A   Scattered Clouds
10:50 AM 59.0 °F 42.8 °F 55% 29.86 in 6.2 mi NW 17.3 mph - N/A   Mostly Cloudy
11:20 AM 60.8 °F 42.8 °F 52% 29.86 in 6.2 mi NW 11.5 mph 24.2 mph N/A   Mostly Cloudy
11:50 AM 60.8 °F 42.8 °F 52% 29.86 in 6.2 mi NNW 15.0 mph 27.6 mph N/A   Mostly Cloudy
12:20 PM 60.8 °F 42.8 °F 52% 29.86 in 6.2 mi NNW 13.8 mph 25.3 mph N/A   Mostly Cloudy
12:50 PM 62.6 °F 42.8 °F 48% 29.86 in 6.2 mi NNW 15.0 mph 26.5 mph N/A   Mostly Cloudy
1:20 PM 60.8 °F 44.6 °F 55% 29.86 in 6.2 mi NNW 15.0 mph 26.5 mph N/A   Mostly Cloudy
1:50 PM 60.8 °F 44.6 °F 55% 29.86 in 6.2 mi NNW 17.3 mph - N/A   Scattered Clouds
2:20 PM 60.8 °F 46.4 °F 59% 29.86 in 6.2 mi NNW 13.8 mph 25.3 mph N/A   Scattered Clouds
2:50 PM 60.8 °F 46.4 °F 59% 29.86 in 6.2 mi NNW 13.8 mph 25.3 mph N/A   Mostly Cloudy
3:20 PM 59.0 °F 44.6 °F 59% 29.86 in 6.2 mi NNW 15.0 mph 27.6 mph N/A   Mostly Cloudy
3:50 PM 59.0 °F 44.6 °F 59% 29.86 in 6.2 mi NNW 20.7 mph 32.2 mph N/A   Mostly Cloudy
4:20 PM 60.8 °F 44.6 °F 55% 29.86 in 6.2 mi NNW 11.5 mph 23.0 mph N/A   Mostly Cloudy
4:50 PM 60.8 °F 46.4 °F 59% 29.86 in 6.2 mi NNW 17.3 mph - N/A   Scattered Clouds
5:20 PM 60.8 °F 46.4 °F 59% 29.86 in 6.2 mi NNW 18.4 mph - N/A   Scattered Clouds
5:50 PM 60.8 °F 46.4 °F 59% 29.86 in 6.2 mi NNW 15.0 mph - N/A   Scattered Clouds
6:20 PM 59.0 °F 44.6 °F 59% 29.86 in 6.2 mi NW 11.5 mph - N/A   Scattered Clouds
6:50 PM 59.0 °F 48.2 °F 67% 29.89 in 6.2 mi NW 11.5 mph - N/A   Scattered Clouds
7:50 PM 59.0 °F 44.6 °F 59% 29.89 in 6.2 mi NNW 12.7 mph - N/A   Partly Cloudy
8:20 PM 59.0 °F 44.6 °F 59% 29.89 in 6.2 mi NNW 11.5 mph - N/A   Partly Cloudy
8:50 PM 59.0 °F 44.6 °F 59% 29.89 in 6.2 mi NNW 8.1 mph - N/A   Partly Cloudy
9:20 PM 59.0 °F 44.6 °F 59% 29.89 in 6.2 mi NW 10.4 mph - N/A   Partly Cloudy
9:50 PM 59.0 °F 44.6 °F 59% 29.89 in 6.2 mi NNW 12.7 mph - N/A   Partly Cloudy
10:20 PM 59.0 °F 44.6 °F 59% 29.89 in 6.2 mi NW 10.4 mph - N/A   Scattered Clouds
10:50 PM 59.0 °F 44.6 °F 59% 29.89 in 6.2 mi NW 9.2 mph - N/A   Scattered Clouds
11:20 PM 59.0 °F 44.6 °F 59% 29.89 in 6.2 mi NNW 5.8 mph - N/A   Scattered Clouds
11:50 PM 59.0 °F 44.6 °F 59% 29.89 in 6.2 mi NW 6.9 mph - N/A   Scattered Clouds